H1 CPF 2 NER 2025 10 18 9 291 01 glonass141 H2 1908801 9141 44850 2025 10 18 0 0 0 2025 10 21 23 45 0 900 1 1 0 0 0 1 H9 10 0 60966 0.00000 0 -7112321.327 8264288.334 23085002.186 10 0 60966 900.00000 0 -8815402.518 5975864.420 23201136.149 10 0 60966 1800.00000 0 -10676748.794 3831501.632 22867803.979 10 0 60966 2700.00000 0 -12645996.849 1881045.522 22091351.433 10 0 60966 3600.00000 0 -14665228.714 164314.894 20886692.928 10 0 60966 4500.00000 0 -16671253.709 -1290340.304 19277035.570 10 0 60966 5400.00000 0 -18598130.513 -2466995.273 17293444.348 10 0 60966 6300.00000 0 -20379825.705 -3362581.317 14974255.464 10 0 60966 7200.00000 0 -21952898.808 -3986773.459 12364347.691 10 0 60966 8100.00000 0 -23259102.117 -4361339.316 9514284.452 10 0 60966 9000.00000 0 -24247786.442 -4518976.279 6479341.990 10 0 60966 9900.00000 0 -24878011.314 -4501685.697 3318441.707 10 0 60966 10800.00000 0 -25120270.005 -4358752.534 93006.885 10 0 60966 11700.00000 0 -24957755.516 -4144416.007 -3134233.952 10 0 60966 12600.00000 0 -24387112.707 -3915330.211 -6300473.313 10 0 60966 13500.00000 0 -23418643.389 -3727923.134 -9344055.970 10 0 60966 14400.00000 0 -22075954.372 -3635767.118 -12205690.130 10 0 60966 15300.00000 0 -20395062.216 -3687073.639 -14829613.700 10 0 60966 16200.00000 0 -18422991.649 -3922420.180 -17164691.740 10 0 60966 17100.00000 0 -16215926.223 -4372807.089 -19165422.642 10 0 60966 18000.00000 0 -13836988.961 -5058128.265 -20792832.525 10 0 60966 18900.00000 0 -11353746.339 -5986121.713 -22015239.826 10 0 60966 19800.00000 0 -8835540.658 -7151845.505 -22808874.905 10 0 60966 20700.00000 0 -6350762.862 -8537702.145 -23158342.511 10 0 60966 21600.00000 0 -3964180.178 -10114010.941 -23056918.345 10 0 60966 22500.00000 0 -1734430.234 -11840104.668 -22506674.295 10 0 60966 23400.00000 0 288213.960 -13665904.550 -21518430.425 10 0 60966 24300.00000 0 2063715.572 -15533907.322 -20111535.222 10 0 60966 25200.00000 0 3563705.051 -17381500.815 -18313478.978 10 0 60966 26100.00000 0 4772412.501 -19143510.642 -16159348.464 10 0 60966 27000.00000 0 5687064.283 -20754870.911 -13691134.129 10 0 60966 27900.00000 0 6317729.438 -22153306.829 -10956903.876 10 0 60966 28800.00000 0 6686624.684 -23281916.594 -8009860.134 10 0 60966 29700.00000 0 6826909.534 -24091544.438 -4907299.098 10 0 60966 30600.00000 0 6781024.402 -24542845.617 -1709492.921 10 0 60966 31500.00000 0 6598643.615 -24607957.231 1521482.993 10 0 60966 32400.00000 0 6334331.146 -24271705.491 4722954.438 10 0 60966 33300.00000 0 6044999.081 -23532299.622 7832861.155 10 0 60966 34200.00000 0 5787276.697 -22401484.099 10790954.339 10 0 60966 35100.00000 0 5614901.364 -20904143.570 13539956.081 10 0 60966 36000.00000 0 5576241.160 -19077377.506 16026658.880 10 0 60966 36900.00000 0 5712053.227 -16969083.451 18202944.770 10 0 60966 37800.00000 0 6053571.758 -14636107.864 20026705.408 10 0 60966 38700.00000 0 6621005.591 -12142041.050 21462646.491 10 0 60966 39600.00000 0 7422508.329 -9554747.026 22482962.095 10 0 60966 40500.00000 0 8453664.301 -6943729.763 23067866.921 10 0 60966 41400.00000 0 9697512.480 -4377443.634 23205976.995 10 0 60966 42300.00000 0 11125108.364 -1920658.149 22894531.839 10 0 60966 43200.00000 0 12696601.729 368015.318 22139453.909 10 0 60966 44100.00000 0 14362786.973 2438333.595 20955243.695 10 0 60966 45000.00000 0 16067063.117 4250277.971 19364711.683 10 0 60966 45900.00000 0 17747723.450 5775480.355 17398551.207 10 0 60966 46800.00000 0 19340480.733 6998160.495 15094759.029 10 0 60966 47700.00000 0 20781123.609 7915535.336 12497913.359 10 0 60966 48600.00000 0 22008193.713 8537683.397 9658321.906 10 0 60966 49500.00000 0 22965571.475 8886869.645 6631055.205 10 0 60966 50400.00000 0 23604861.617 8996358.982 3474883.143 10 0 60966 51300.00000 0 23887477.218 8908768.189 251134.854 10 0 60966 52200.00000 0 23786333.265 8674025.874 -2977495.888 10 0 60966 53100.00000 0 23287076.792 8347026.973 -6148176.079 10 0 60966 54000.00000 0 22388800.035 7985081.686 -9199165.075 10 0 60966 54900.00000 0 21104204.872 7645267.831 -12071027.344 10 0 60966 55800.00000 0 19459210.184 7381800.008 -14707801.514 10 0 60966 56700.00000 0 17492017.480 7243528.438 -17058101.752 10 0 60966 57600.00000 0 15251673.302 7271674.886 -19076128.943 10 0 60966 58500.00000 0 12796188.407 7497902.946 -20722571.023 10 0 60966 59400.00000 0 10190292.544 7942805.592 -21965374.332 10 0 60966 60300.00000 0 7502919.016 8614874.999 -22780370.634 10 0 60966 61200.00000 0 4804524.604 9509998.897 -23151747.508 10 0 60966 62100.00000 0 2164357.077 10611505.243 -23072353.151 10 0 60966 63000.00000 0 -352215.514 11890753.521 -22543830.042 10 0 60966 63900.00000 0 -2686202.444 13308247.801 -21576575.336 10 0 60966 64800.00000 0 -4787211.147 14815224.497 -20189529.384 10 0 60966 65700.00000 0 -6615299.539 16355647.725 -18409797.062 10 0 60966 66600.00000 0 -8142383.821 17868527.968 -16272109.923 10 0 60966 67500.00000 0 -9353144.656 19290466.181 -13818140.267 10 0 60966 68400.00000 0 -10245395.890 20558316.053 -11095681.026 10 0 60966 69300.00000 0 -10829902.608 21611852.298 -8157708.094 10 0 60966 70200.00000 0 -11129658.524 22396332.723 -5061343.830 10 0 60966 71100.00000 0 -11178655.379 22864846.503 -1866742.474 10 0 60966 72000.00000 0 -11020198.212 22980350.239 1364080.431 10 0 60966 72900.00000 0 -10704839.285 22717306.727 4568451.526 10 0 60966 73800.00000 0 -10288019.075 22062858.153 7684252.530 10 0 60966 74700.00000 0 -9827514.765 21017485.120 10651119.031 10 0 60966 75600.00000 0 -9380804.233 19595124.397 13411602.291 10 0 60966 76500.00000 0 -9002456.654 17822740.866 15912272.128 10 0 60966 77400.00000 0 -8741659.332 15739371.680 18104740.383 10 0 60966 78300.00000 0 -8639984.259 13394682.363 19946586.185 10 0 60966 79200.00000 0 -8729487.705 10847094.404 21402166.325 10 0 60966 80100.00000 0 -9031222.112 8161561.367 22443296.188 10 0 60966 81000.00000 0 -9554222.449 5407084.625 23049789.144 10 0 60966 81900.00000 0 -10295009.537 2654070.248 23209844.797 10 0 60966 82800.00000 0 -11237631.689 -28364.954 22920279.006 10 0 60966 83700.00000 0 -12354243.800 -2575028.278 22186591.322 10 0 60966 84600.00000 0 -13606201.008 -4927119.242 21022868.112 10 0 60966 85500.00000 0 -14945622.736 -7034429.872 19451522.451 10 0 60967 0.00000 0 -16317363.233 -8857186.716 17502874.824 10 0 60967 900.00000 0 -17661308.495 -10367459.606 15214580.246 10 0 60967 1800.00000 0 -18914902.820 -11550076.403 12630914.075 10 0 60967 2700.00000 0 -20015802.439 -12403008.826 9801925.445 10 0 60967 3600.00000 0 -20904543.416 -12937210.542 6782476.001 10 0 60967 4500.00000 0 -21527112.199 -13175915.056 3631180.726 10 0 60967 5400.00000 0 -21837309.820 -13153422.503 409271.094 10 0 60967 6300.00000 0 -21798808.927 -12913426.333 -2820597.425 10 0 60967 7200.00000 0 -21386815.309 -12506950.683 -5995569.836 10 0 60967 8100.00000 0 -20589262.053 -11989986.001 -9053823.528 10 0 60967 9000.00000 0 -19407484.051 -11420923.719 -11935782.538 10 0 60967 9900.00000 0 -17856342.692 -10857899.581 -14585289.319 10 0 60967 10800.00000 0 -15963793.924 -10356159.314 -16950709.978 10 0 60967 11700.00000 0 -13769916.657 -9965559.479 -18985950.350 10 0 60967 12600.00000 0 -11325441.540 -9728310.555 -20651362.184 10 0 60967 13500.00000 0 -8689841.358 -9677058.864 -21914521.172 10 0 60967 14400.00000 0 -5929062.907 -9833389.328 -22750861.324 10 0 60967 15300.00000 0 -3112995.299 -10206812.959 -23144153.259 10 0 60967 16200.00000 0 -312780.624 -10794282.154 -23086817.280 10 0 60967 17100.00000 0 2401920.681 -11580254.291 -22580065.509 10 0 60967 18000.00000 0 4965595.732 -12537300.747 -21633870.782 10 0 60967 18900.00000 0 7319365.525 -13627235.252 -20266763.514 10 0 60967 19800.00000 0 9413188.678 -14802713.525 -18505461.047 10 0 60967 20700.00000 0 11207691.686 -16009236.181 -16384337.353 10 0 60967 21600.00000 0 12675550.702 -17187469.937 -13944743.999 10 0 60967 22500.00000 0 13802368.898 -18275788.806 -11234196.211 10 0 60967 23400.00000 0 14587014.749 -19212927.798 -8305440.456 10 0 60967 24300.00000 0 15041409.299 -19940637.048 -5215422.299 10 0 60967 25200.00000 0 15189773.653 -20406224.501 -2024175.069 10 0 60967 26100.00000 0 15067370.495 -20564880.159 1206348.523 10 0 60967 27000.00000 0 14718794.544 -20381684.295 4413478.828 10 0 60967 27900.00000 0 14195885.523 -19833215.564 7535042.232 10 0 60967 28800.00000 0 13555352.730 -18908691.834 10510561.181 10 0 60967 29700.00000 0 12856211.948 -17610596.284 13282418.279 10 0 60967 30600.00000 0 12157142.847 -15954762.778 15796962.532 10 0 60967 31500.00000 0 11513877.890 -13969917.014 18005537.107 10 0 60967 32400.00000 0 10976732.010 -11696692.381 19865409.785 10 0 60967 33300.00000 0 10588376.102 -9186160.932 21340589.273 10 0 60967 34200.00000 0 10381947.034 -6497939.687 22402512.732 10 0 60967 35100.00000 0 10379572.752 -3697949.650 23030592.330 10 0 60967 36000.00000 0 10591373.878 -855918.946 23212611.039 10 0 60967 36900.00000 0 11014983.585 1957268.121 22944960.539 10 0 60967 37800.00000 0 11635606.205 4672268.031 22232716.672 10 0 60967 38700.00000 0 12426612.930 7223911.027 21089550.638 10 0 60967 39600.00000 0 13350650.828 9553662.396 19537476.827 10 0 60967 40500.00000 0 14361220.082 11611811.150 17606441.031 10 0 60967 41400.00000 0 15404654.831 13359295.984 15333755.582 10 0 60967 42300.00000 0 16422425.820 14769092.900 12763390.871 10 0 60967 43200.00000 0 17353669.226 15827106.737 9945135.511 10 0 60967 44100.00000 0 18137835.943 16532529.124 6933640.163 10 0 60967 45000.00000 0 18717349.874 16897647.503 3787362.690 10 0 60967 45900.00000 0 19040162.749 16947112.858 567434.588 10 0 60967 46800.00000 0 19062096.675 16716696.666 -2663529.333 10 0 60967 47700.00000 0 18748874.076 16251589.381 -5842654.448 10 0 60967 48600.00000 0 18077747.521 15604312.456 -8908038.449 10 0 60967 49500.00000 0 17038658.677 14832332.640 -11799967.082 10 0 60967 50400.00000 0 15634875.490 13995480.215 -14462088.601 10 0 60967 51300.00000 0 13883078.913 13153281.388 -16842522.820 10 0 60967 52200.00000 0 11812893.964 12362318.814 -18894882.113 10 0 60967 53100.00000 0 9465883.600 11673733.022 -20579183.454 10 0 60967 54000.00000 0 6894046.832 11130971.383 -21862633.146 10 0 60967 54900.00000 0 4157883.502 10767880.540 -22720268.569 10 0 60967 55800.00000 0 1324106.544 10607223.382 -23135444.345 10 0 60967 56700.00000 0 -1536902.684 10659683.332 -23100153.651 10 0 60967 57600.00000 0 -4353789.740 10923397.814 -22615178.759 10 0 60967 58500.00000 0 -7056960.638 11384040.167 -21690068.365 10 0 60967 59400.00000 0 -9581239.807 12015445.863 -20342942.749 10 0 60967 60300.00000 0 -11868342.082 12780755.818 -18600131.113 10 0 60967 61200.00000 0 -13869056.377 13634027.686 -16495648.841 10 0 60967 62100.00000 0 -15545051.015 14522246.257 -14070525.410 10 0 60967 63000.00000 0 -16870226.795 15387647.373 -11371996.660 10 0 60967 63900.00000 0 -17831562.949 16170256.558 -8452577.736 10 0 60967 64800.00000 0 -18429422.610 16810534.749 -5369035.302 10 0 60967 65700.00000 0 -18677307.121 17252019.157 -2181279.542 10 0 60967 66600.00000 0 -18601071.614 17443847.705 1048802.027 10 0 60967 67500.00000 0 -18237636.876 17343060.699 4258545.922 10 0 60967 68400.00000 0 -17633253.377 16916582.921 7385725.758 10 0 60967 69300.00000 0 -16841391.882 16142803.038 10369753.470 10 0 60967 70200.00000 0 -15920350.314 15012684.227 13152845.700 10 0 60967 71100.00000 0 -14930677.953 13530359.614 15681133.344 10 0 60967 72000.00000 0 -13932525.220 11713187.607 17905693.563 10 0 60967 72900.00000 0 -12983029.932 9591264.551 19783485.346 10 0 60967 73800.00000 0 -12133848.949 7206414.460 21278171.683 10 0 60967 74700.00000 0 -11428937.812 4610696.943 22360813.643 10 0 60967 75600.00000 0 -10902670.448 1864494.077 23010423.982 10 0 60967 76500.00000 0 -10578376.852 -965745.973 23214370.462 10 0 60967 77400.00000 0 -10467359.426 -3810016.795 22968621.558 10 0 60967 78300.00000 0 -10568428.953 -6597410.975 22277829.900 10 0 60967 79200.00000 0 -10867979.894 -9258818.518 21155251.494 10 0 60967 80100.00000 0 -11340602.472 -11729556.174 19622501.490 10 0 60967 81000.00000 0 -11950206.876 -13951819.979 17709150.089 10 0 60967 81900.00000 0 -12651613.618 -15876860.101 15452165.001 10 0 60967 82800.00000 0 -13392544.426 -17466788.005 12895209.756 10 0 60967 83700.00000 0 -14115931.063 -18695940.775 10087810.006 10 0 60967 84600.00000 0 -14762445.604 -19551745.379 7084402.677 10 0 60967 85500.00000 0 -15273145.840 -20035046.222 3943285.515 10 0 60968 0.00000 0 -15592123.932 -20159881.719 725487.175 10 0 60968 900.00000 0 -15669045.834 -19952718.747 -2506422.037 10 0 60968 1800.00000 0 -15461472.523 -19451176.752 -5689550.897 10 0 60968 2700.00000 0 -14936863.808 -18702295.436 -8761920.731 10 0 60968 3600.00000 0 -14074177.614 -17760419.093 -11663682.294 10 0 60968 4500.00000 0 -12864995.358 -16684787.609 -14338292.817 10 0 60968 5400.00000 0 -11314123.841 -15536936.671 -16733628.835 10 0 60968 6300.00000 0 -9439646.477 -14378017.966 -18803011.967 10 0 60968 7200.00000 0 -7272420.177 -13266153.611 -20506126.748 10 0 60968 8100.00000 0 -4855037.825 -12253937.443 -21809811.938 10 0 60968 9000.00000 0 -2240299.064 -11386189.372 -22688709.579 10 0 60968 9900.00000 0 510747.060 -10698057.978 -23125759.000 10 0 60968 10800.00000 0 3331105.950 -10213551.461 -23112526.369 10 0 60968 11700.00000 0 6150391.661 -9944558.618 -22649363.674 10 0 60968 12600.00000 0 8897524.860 -9890400.469 -21745394.556 10 0 60968 13500.00000 0 11503462.065 -10037930.573 -20418327.808 10 0 60968 14400.00000 0 13903842.612 -10362178.656 -18694102.775 10 0 60968 15300.00000 0 16041443.387 -10827509.222 -16606374.182 10 0 60968 16200.00000 0 17868339.653 -11389244.973 -14195847.023 10 0 60968 17100.00000 0 19347682.873 -11995685.365 -11509475.050 10 0 60968 18000.00000 0 20455022.561 -12590434.003 -8599539.093 10 0 60968 18900.00000 0 21179118.598 -13114935.715 -5522623.691 10 0 60968 19800.00000 0 21522211.832 -13511115.514 -2338512.485 10 0 60968 20700.00000 0 21499743.613 -13724007.599 890975.658 10 0 60968 21600.00000 0 21139537.963 -13704263.244 4103186.841 10 0 60968 22500.00000 0 20480482.530 -13410431.791 7235845.157 10 0 60968 23400.00000 0 19570765.207 -12810918.801 10228255.013 10 0 60968 24300.00000 0 18465741.615 -11885539.128 13022469.716 10 0 60968 25200.00000 0 17225523.636 -10626599.830 15564404.276 10 0 60968 26100.00000 0 15912390.405 -9039467.527 17804871.635 10 0 60968 27000.00000 0 14588130.025 -7142596.220 19700523.335 10 0 60968 27900.00000 0 13311422.739 -4967013.863 21214677.583 10 0 60968 28800.00000 0 12135374.156 -2555288.228 22318019.857 10 0 60968 29700.00000 0 11105300.646 39986.169 22989163.622 10 0 60968 30600.00000 0 10256858.385 2758118.808 23215061.165 10 0 60968 31500.00000 0 9614593.353 5532593.226 22991257.123 10 0 60968 32400.00000 0 9190972.233 8293584.248 22321979.939 10 0 60968 33300.00000 0 8985934.439 10970619.959 21220069.131 10 0 60968 34200.00000 0 8986984.143 13495279.823 19706739.024 10 0 60968 35100.00000 0 9169818.931 15803818.494 17811182.393 10 0 60968 36000.00000 0 9499469.494 17839607.465 15570020.270 10 0 60968 36900.00000 0 9931903.449 19555293.594 13026607.086 10 0 60968 37800.00000 0 10416026.732 20914584.775 10230203.132 10 0 60968 38700.00000 0 10895999.072 21893587.976 7235029.069 10 0 60968 39600.00000 0 11313766.269 22481643.106 4099219.914 10 0 60968 40500.00000 0 11611702.365 22681617.027 883698.238 10 0 60968 41400.00000 0 11735249.486 22509644.635 -2349011.646 10 0 60968 42300.00000 0 11635442.657 21994327.183 -5536005.039 10 0 60968 43200.00000 0 11271211.325 21175421.238 -8615229.302 10 0 60968 44100.00000 0 10611358.360 20102073.370 -11526702.370 10 0 60968 45000.00000 0 9636130.850 18830675.271 -14213692.379 10 0 60968 45900.00000 0 8338314.229 17422430.323 -16623834.222 10 0 60968 46800.00000 0 6723801.595 15940735.020 -18710160.166 10 0 60968 47700.00000 0 4811612.453 14448486.588 -20432023.451 10 0 60968 48600.00000 0 2633358.656 13005431.187 -21755896.247 10 0 60968 49500.00000 0 232178.847 11665665.145 -22656026.008 10 0 60968 50400.00000 0 -2338814.649 10475394.931 -23114937.327 10 0 60968 51300.00000 0 -5018511.892 9471050.284 -23123769.680 10 0 60968 52200.00000 0 -7740121.966 8677829.622 -22682444.818 10 0 60968 53100.00000 0 -10433733.432 8108738.245 -21799661.022 10 0 60968 54000.00000 0 -13029011.769 7764158.789 -20492714.931 10 0 60968 54900.00000 0 -15457921.313 7631970.679 -18787154.973 10 0 60968 55800.00000 0 -17657358.341 7688212.014 -16716273.800 10 0 60968 56700.00000 0 -19571585.843 7898254.414 -14320450.201 10 0 60968 57600.00000 0 -21154369.040 8218439.661 -11646353.896 10 0 60968 58500.00000 0 -22370723.381 8598107.621 -8746029.295 10 0 60968 59400.00000 0 -23198203.225 8981928.516 -5675876.620 10 0 60968 60300.00000 0 -23627678.766 9312440.015 -2495550.726 10 0 60968 61200.00000 0 -23663570.341 9532681.201 733200.454 10 0 60968 62100.00000 0 -23323532.052 9588811.693 3947734.921 10 0 60968 63000.00000 0 -22637599.668 9432605.153 7085729.608 10 0 60968 63900.00000 0 -21646840.042 9023711.955 10086383.796 10 0 60968 64800.00000 0 -20401559.922 8331595.850 12891589.887 10 0 60968 65700.00000 0 -18959150.048 7337063.244 15447049.420 10 0 60968 66600.00000 0 -17381655.245 6033320.977 17703313.469 10 0 60968 67500.00000 0 -15733172.140 4426518.094 19616728.340 10 0 60968 68400.00000 0 -14077182.786 2535748.540 21150269.448 10 0 60968 69300.00000 0 -12473934.754 392513.918 22274248.401 10 0 60968 70200.00000 0 -10977975.947 -1960332.471 22966880.749 10 0 60968 71100.00000 0 -9635945.751 -4470117.847 23214704.305 10 0 60968 72000.00000 0 -8484713.514 -7076296.574 23012840.467 10 0 60968 72900.00000 0 -7549940.997 -9712732.316 22365093.670 10 0 60968 73800.00000 0 -6845128.060 -12310223.081 21283886.700 10 0 60968 74700.00000 0 -6371181.136 -14799166.246 19790032.391 10 0 60968 75600.00000 0 -6116522.517 -17112254.561 17912345.003 10 0 60968 76500.00000 0 -6057736.237 -19187092.405 15687097.411 10 0 60968 77400.00000 0 -6160724.068 -20968624.160 13157333.097 10 0 60968 78300.00000 0 -6382323.716 -22411273.845 10372044.832 10 0 60968 79200.00000 0 -6672321.759 -23480706.455 7385234.599 10 0 60968 80100.00000 0 -6975776.898 -24155136.748 4254872.072 10 0 60968 81000.00000 0 -7235555.495 -24426129.765 1041771.273 10 0 60968 81900.00000 0 -7394971.878 -24298858.478 -2191592.904 10 0 60968 82800.00000 0 -7400420.871 -23791806.765 -5382304.930 10 0 60968 83700.00000 0 -7203889.854 -22935929.417 -8468241.169 10 0 60968 84600.00000 0 -6765242.334 -21773304.052 -11389289.724 10 0 60968 85500.00000 0 -6054174.482 -20355331.584 -14088532.579 10 0 60969 0.00000 0 -5051759.959 -18740561.423 -16513365.624 10 0 60969 900.00000 0 -3751515.154 -16992232.654 -18616534.840 10 0 60969 1800.00000 0 -2159939.407 -15175637.628 -20357064.290 10 0 60969 2700.00000 0 -296504.098 -13355416.873 -21701061.497 10 0 60969 3600.00000 0 1806909.016 -11592901.880 -22622380.812 10 0 60969 4500.00000 0 4107098.031 -9943617.194 -23103133.070 10 0 60969 5400.00000 0 6551114.559 -8455047.059 -23134031.523 10 0 60969 6300.00000 0 9078255.274 -7164760.187 -22714567.646 10 0 60969 7200.00000 0 11622388.174 -6098970.817 -21853013.880 10 0 60969 8100.00000 0 14114516.332 -5271595.406 -20566253.798 10 0 60969 9000.00000 0 16485472.032 -4683843.205 -18879443.610 10 0 60969 9900.00000 0 18668628.792 -4324356.226 -16825512.213 10 0 60969 10800.00000 0 20602518.131 -4169890.848 -14444510.127 10 0 60969 11700.00000 0 22233242.178 -4186510.446 -11782820.586 10 0 60969 12600.00000 0 23516581.794 -4331236.903 -8892248.760 10 0 60969 13500.00000 0 24419712.993 -4554089.630 -5829007.402 10 0 60969 14400.00000 0 24922460.888 -4800424.584 -2652619.178 10 0 60969 15300.00000 0 25018040.033 -5013473.341 575242.456 10 0 60969 16200.00000 0 24713251.572 -5136974.167 3791950.969 10 0 60969 17100.00000 0 24028130.456 -5117783.505 6935139.581 10 0 60969 18000.00000 0 22995058.878 -4908357.441 9943905.663 10 0 60969 18900.00000 0 21657384.283 -4468998.549 12759983.604 10 0 60969 19800.00000 0 20067600.675 -3769773.597 15328863.968 10 0 60969 20700.00000 0 18285169.784 -2792021.633 17600838.035 10 0 60969 21600.00000 0 16374073.216 -1529389.119 19531948.527 10 0 60969 22500.00000 0 14400197.371 11651.453 21084829.287 10 0 60969 23400.00000 0 12428659.429 1811821.729 22229418.870 10 0 60969 24300.00000 0 10521184.749 3839596.528 22943535.324 10 0 60969 25200.00000 0 8733643.593 6052279.765 23213301.998 10 0 60969 26100.00000 0 7113848.424 8397554.161 23033416.662 10 0 60969 27000.00000 0 5699702.210 10815442.186 22407258.947 10 0 60969 27900.00000 0 4517773.835 13240598.818 21346833.711 10 0 60969 28800.00000 0 3582359.273 15604842.825 19872550.720 10 0 60969 29700.00000 0 2895067.323 17839823.131 18012843.804 10 0 60969 30600.00000 0 2444947.199 19879710.847 15803635.458 10 0 60969 31500.00000 0 2209152.866 21663805.780 13287655.758 10 0 60969 32400.00000 0 2154116.705 23138949.188 10513627.284 10 0 60969 33300.00000 0 2237183.618 24261641.921 7535330.519 10 0 60969 34200.00000 0 2408637.149 24999778.711 4410566.873 10 0 60969 35100.00000 0 2614032.232 25333925.007 1200038.850 10 0 60969 36000.00000 0 2796735.802 25258081.559 -2033831.031 10 0 60969 36900.00000 0 2900567.160 24779903.378 -5228119.255 10 0 60969 37800.00000 0 2872425.232 23920362.733 -8320633.866 10 0 60969 38700.00000 0 2664790.040 22712869.430 -11251135.555 10 0 60969 39600.00000 0 2237990.707 21201884.870 -13962522.283 10 0 60969 40500.00000 0 1562142.100 19441088.017 -16401953.149 10 0 60969 41400.00000 0 618666.236 17491170.627 -18521888.465 10 0 60969 42300.00000 0 -598667.684 15417354.917 -20281024.765 10 0 60969 43200.00000 0 -2083230.142 13286738.628 -21645105.843 10 0 60969 44100.00000 0 -3815568.128 11165579.610 -22587593.606 10 0 60969 45000.00000 0 -5763991.401 9116634.436 -23090185.519 10 0 60969 45900.00000 0 -7885684.333 7196662.926 -23143168.705 10 0 60969 46800.00000 0 -10128297.152 5454203.103 -22745604.143 10 0 60969 47700.00000 0 -12431950.065 3927709.344 -21905337.828 10 0 60969 48600.00000 0 -14731566.419 2644130.822 -20638839.277 10 0 60969 49500.00000 0 -16959437.178 1617988.482 -18970871.089 10 0 60969 50400.00000 0 -19047909.334 850987.541 -16933996.647 10 0 60969 51300.00000 0 -20932085.789 332179.831 -14567936.141 10 0 60969 52200.00000 0 -22552423.860 38667.006 -11918784.034 10 0 60969 53100.00000 0 -23857123.945 -63187.117 -9038103.835 10 0 60969 54000.00000 0 -24804208.914 -16088.187 -5981918.337 10 0 60969 54900.00000 0 -25363207.837 130240.874 -2809615.499 10 0 60969 55800.00000 0 -25516374.513 321407.769 417208.218 10 0 60969 56700.00000 0 -25259390.836 500894.101 3635944.256 10 0 60969 57600.00000 0 -24601526.766 612685.871 6784184.618 10 0 60969 58500.00000 0 -23565251.397 603879.703 9800927.242 10 0 60969 59400.00000 0 -22185312.457 427154.711 12627750.918 10 0 60969 60300.00000 0 -20507323.612 43005.965 15209937.571 10 0 60969 61200.00000 0 -18585919.102 -578354.305 17497520.854 10 0 60969 62100.00000 0 -16482552.875 -1455507.462 19446241.844 10 0 60969 63000.00000 0 -14263033.662 -2594813.666 21018394.470 10 0 60969 63900.00000 0 -11994897.946 -3989914.296 22183545.525 10 0 60969 64800.00000 0 -9744729.086 -5621773.012 22919116.468 10 0 60969 65700.00000 0 -7575532.709 -7459254.803 23210816.697 10 0 60969 66600.00000 0 -5544276.053 -9460220.272 23052920.463 10 0 60969 67500.00000 0 -3699692.091 -11573091.339 22448382.323 10 0 60969 68400.00000 0 -2080438.422 -13738825.139 21408788.583 10 0 60969 69300.00000 0 -713686.560 -15893215.955 19954144.973 10 0 60969 70200.00000 0 385800.317 -17969431.256 18112503.603 10 0 60969 71100.00000 0 1216063.056 -19900677.793 15919434.991 10 0 60969 72000.00000 0 1787799.098 -21622887.767 13417353.907 10 0 60969 72900.00000 0 2123677.919 -23077313.553 10654710.591 10 0 60969 73800.00000 0 2257147.762 -24212922.591 7685061.651 10 0 60969 74700.00000 0 2230783.515 -24988491.689 4566037.692 10 0 60969 75600.00000 0 2094245.220 -25374311.947 1358227.041 10 0 60969 76500.00000 0 1901933.526 -25353431.467 -1876002.876 10 0 60969 77400.00000 0 1710441.650 -24922382.108 -5073723.319 10 0 60969 78300.00000 0 1575912.556 -24091358.281 -8172676.765 10 0 60969 79200.00000 0 1551414.489 -22883838.942 -11112499.226 10 0 60969 80100.00000 0 1684447.555 -21335667.684 -13835907.308 10 0 60969 81000.00000 0 2014688.672 -19493629.016 -16289825.667 10 0 60969 81900.00000 0 2572072.151 -17413580.442 -18426431.744 10 0 60969 82800.00000 0 3375288.858 -15158218.967 -20204096.404 10 0 60969 83700.00000 0 4430768.945 -12794576.156 -21588201.452 10 0 60969 84600.00000 0 5732192.494 -10391347.330 -22551817.675 10 0 60969 85500.00000 0 7260549.735 -8016167.317 -23076230.042 99